sat.trackr.live / text

‹ back to catalog

XRISM

NORAD 57800 · 2023-137A

PAYLOAD ACTIVE UNKNOWN

§ Identity

Operator
Country
JPN
Launch date
2023-09-06
Launch site
TANSC
Launch vehicle
Mass (kg)
RCS (m²)

External: N2YO · Heavens-Above · Gunter

§ Orbital elements

Epoch: 2026-05-25T02:10:47.856288Z

Period
95.22 min
Inclination
31.0009°
Eccentricity
0.0007553
Mean motion
15.12228611 rev/d
Perigee alt
524.2 km
Apogee alt
534.6 km
Semi-major
6,907.5 km
B*
1.9831e-4
RAAN
149.1850°
Arg perigee
91.7958°
Mean anomaly
268.3545°
Rev number
14,936

§ Raw data

XRISM1 57800U 23137A   26145.09083167  .00003611  00000+0  19831-3 0  99932 57800  31.0009 149.1850 0007553  91.7958 268.3545 15.12228611149367

JSON: /api/v1/satellites/57800 · /tle

For live sub-satellite position, see the globe view (requires WebGL).

§ Visibility from observer

Set your observer location to see the next 7 days of passes ≥ 10°. The values pass through the URL so the page stays shareable.

No JS? Fill the form by hand. The geolocation button needs JavaScript.

§ Radio — SatNOGS DB

ModeDescriptionDownlinkUplink
FM Mode S 2.212 GHz

1 transmitter · refreshed weekly from db.satnogs.org